Flag for Nicaragua Weather past 2 weeks in Managua, Nicaragua

Now
91 °F

Scattered clouds.


Feels Like: 103 °F
Forecast: N/A
Wind: 12 mph from West

Location: Managua A. C. Sandino

Current Time: Oct 25, 2014 at 3:37:09 PM

Latest Report: Oct 25, 2014 at 3:00 PM


Visibility: 6 mi

Pressure: 29.74 "Hg

Humidity: 59%

Dew point: 75 °F

Location of ManaguaLocation

Historic Weather in Managua — Graph

°F

Managua temperature yesterday

Maximum temperature yesterday: 90 °F (at 3:00 PM)
Minimum temperature yesterday: 73 °F (at 1:00 AM)
Average temperature yesterday: 81 °F

Past Weeks' High & Low Weather Summary

 TemperatureHumidityPressure
High90 °F (Oct 13, 3:00 PM)100% (Oct 11, 7:00 AM)29.95 "Hg (Oct 11, 7:00 AM)
Low73 °F (Oct 13, 6:00 AM)59% (Oct 13, 3:00 PM)29.71 "Hg (Oct 20, 2:00 PM)
Average80 °F83%29.83 "Hg
* Reported Oct 10 2:00 PM — Oct 25 2:00 PM, Managua, Weather by CustomWeather, © 2014

Note: Actual official high and low records may vary slightly from our data, if they occured in-between our weather recording intervals... More about our weather records

Advertising

Managua weather history for previous 24 hours

 ConditionsComfort  
Time TempWeatherWind HumidityBarometerVisibility
2:00 PM
Oct 25
90 °FThundershowers. Scattered clouds.5 mph63%29.77 "Hg6 mi
1:00 PM88 °FScattered clouds.7 mph66%29.80 "Hg6 mi
12:00 PM88 °FScattered clouds.7 mph66%29.83 "HgN/A
11:00 AM88 °FScattered clouds.7 mph66%29.83 "HgN/A
10:00 AM88 °FScattered clouds.5 mph66%29.83 "HgN/A
9:00 AM84 °FScattered clouds.7 mph74%29.86 "HgN/A
8:00 AM84 °FScattered clouds.7 mph74%29.86 "HgN/A
7:00 AM81 °FScattered clouds.5 mph79%29.83 "HgN/A
6:00 AM79 °FScattered clouds.7 mph89%29.83 "HgN/A
5:00 AM79 °FPassing clouds.5 mph89%29.83 "HgN/A
4:00 AM79 °FPassing clouds.No wind89%29.83 "HgN/A
3:00 AM79 °FPassing clouds.No wind89%29.83 "HgN/A
1:00 AM81 °FPassing clouds.9 mph89%29.83 "HgN/A
12:00 AM81 °FPassing clouds.5 mph89%29.86 "HgN/A
11:00 PM
Oct 24
81 °FPassing clouds.9 mph89%29.89 "HgN/A
10:00 PM81 °FPassing clouds.7 mph89%29.86 "HgN/A
9:00 PM81 °FPassing clouds.No wind89%29.86 "Hg5 mi
8:00 PM81 °FPassing clouds.No wind84%29.86 "Hg5 mi
7:00 PM84 °FPassing clouds.No wind74%29.83 "HgN/A
6:00 PM82 °FPassing clouds.5 mph84%29.77 "Hg4 mi
5:00 PM86 °FScattered clouds.5 mph66%29.74 "HgN/A
4:05 PMN/AThundershowers.5 mphN/AN/A6 mi
4:00 PM88 °FPassing clouds.7 mph66%29.74 "HgN/A
3:00 PM90 °FPassing clouds.5 mph63%29.74 "HgN/A
Weather by CustomWeather, © 2014

See weather overviewHow to use our weather pages